Hourly Data Report for July 09, 2011

HALIFAX STANFIELD INT'L A
NOVA SCOTIA

44°52'48.060" N
63°30'00.050" W
145.40 m
8202250
71395
YHZ

Download Data

Hourly Data (July 2011)
Hourly Data Report for July 9, 2011
TIME
LST
Temp Definition
°C
Dew Point Definition
°C
Rel Hum Definition
%
Precip. Amount Definition
mm

Wind Dir Definition
10's deg

Wind Spd Definition
km/h
Visibility Definition
km
Stn Press Definition
kPa
Hmdx Definition


Wind Chill Definition


Weather Definition


00:00 13.7 12.7 94   15 11 24.1 99.67     Mostly Cloudy
01:00 14.2 12.8 91   15 13 24.1 99.62     Mostly Cloudy
02:00 14.5 13.0 91   15 15 24.1 99.59     Mostly Cloudy
03:00 14.2 13.0 92   15 17 24.1 99.56     Cloudy
04:00 14.5 13.2 92   15 15 24.1 99.51     Cloudy
05:00 14.3 13.3 94   13 11 24.1 99.45     Cloudy
06:00 14.7 13.6 93   14 15 24.1 99.38     Rain Showers
07:00 14.9 14.1 95   16 19 4.8 99.39     Rain Showers, Fog
08:00 14.4 13.3 93   13 20 9.7 99.26     Rain, Fog
09:00 14.5 13.5 94   10 22 9.7 99.08     Rain, Fog
10:00 14.6 13.5 93   10 30 6.4 98.96     Rain, Fog
11:00 14.5 13.5 94   10 30 8.0 98.80     Rain, Fog
12:00 14.2 13.1 93   9 22 6.4 98.65     Moderate Rain, Fog
13:00 14.2 13.2 94   7 24 6.4 98.54     Moderate Rain, Fog
14:00 14.4 13.4 94   1 15 3.2 98.52     Rain, Fog
15:00 14.6 13.7 94   36 26 4.8 98.43     Rain, Fog
16:00 14.8 13.8 94   36 32 12.9 98.37     Drizzle
17:00 15.6 14.3 92   33 26 24.1 98.44     Mostly Cloudy
18:00 15.8 14.3 91   32 32 24.1 98.51     Mostly Cloudy
19:00 15.4 14.1 92   31 26 24.1 98.60     Mostly Cloudy
20:00 15.3 14.3 94   31 15 24.1 98.66     Cloudy
21:00 15.3 14.4 94   29 20 16.1 98.73     Cloudy
22:00 15.6 14.6 94   30 20 24.1 98.81     Mostly Cloudy
23:00 15.6 14.6 94   30 26 24.1 98.83     Mostly Cloudy

Notes on Data Quality.

Legend

  • E = Estimated
  • M = Missing
  • NA = Not Available*
  • [empty] = Indicates an unobserved value
Date modified: